Location: High Cliff State Park
(44.1557°N, 88.2948°W)
Time: 09:28:36
(UTC-05:00)

Amateur Radio Satellites - All Passes

Search period start: 02 October 2014 08:58
Search period end: 03 October 2014 08:58
Location: High Cliff State Park, 44.1557°N, 88.2948°W

Satellite Date Start Highest point End Downlink Frequencies (MHz)
Time Altitude Azimuth
Sapphire 02 Oct 09:12:30 09:17:38 46° 114° (ESE) 09:22:48 437.095 MHz 1200 baud AX-25 AFSK
SO-67 02 Oct 09:12:58 09:14:53 14° 294° (WNW) 09:16:48 435.3500 MHz FM
HO-68 02 Oct 09:34:12 09:41:07 48° 100° (E) 09:48:00 435.675 MHz FM
PCSat 02 Oct 09:37:37 09:43:01 80° 119° (ESE) 09:48:28 145.825 MHz
Oscar 11 02 Oct 10:12:22 10:16:22 36° 97° (E) 10:20:21 145.825 FM, Beacon 2401.500 USB
RS-15 02 Oct 10:35:40 10:46:42 65° 49° (NE) 10:58:09 29.354 - 29.394 USB, Beacon 29.352 USB
FUNcube-1 02 Oct 10:40:09 10:44:13 31° 95° (E) 10:48:11 145.950 - 145.970 MHz USB
UKube-1 02 Oct 10:42:53 10:47:17 87° 285° (WNW) 10:51:39 145.840 MHz, 145.915 MHz
Sapphire 02 Oct 10:56:27 11:01:14 31° 313° (NW) 11:06:03 437.095 MHz 1200 baud AX-25 AFSK
HO-68 02 Oct 11:22:12 11:28:39 37° 299° (WNW) 11:35:05 435.675 MHz FM
PCSat 02 Oct 11:23:02 11:27:05 21° 319° (NW) 11:31:09 145.825 MHz
ZACube-1 02 Oct 11:25:20 11:29:56 87° 284° (WNW) 11:34:23 437.345 MHz
Oscar 11 02 Oct 11:48:59 11:52:21 23° 294° (WNW) 11:55:43 145.825 FM, Beacon 2401.500 USB
JAS-1B 02 Oct 11:50:50 11:52:48 11° 53° (NE) 11:54:42 435.800 - 435.900 CW/SSB
Oscar 19 02 Oct 12:07:02 12:10:08 16° 59° (ENE) 12:13:14 437.125 CW, 437.150 USB
FUNcube-1 02 Oct 12:16:39 12:20:31 28° 293° (WNW) 12:24:17 145.950 - 145.970 MHz USB
UKube-1 02 Oct 12:22:09 12:22:45 10° 302° (WNW) 12:23:22 145.840 MHz, 145.915 MHz
Uribyol 2 02 Oct 12:24:39 12:25:53 11° 54° (NE) 12:27:07 436.500 FM
Oscar 16 02 Oct 12:46:24 12:51:05 35° 67° (ENE) 12:55:46 437.025 USB, Beacon 2401.1428
AO-Echo 02 Oct 12:46:32 12:49:23 16° 60° (ENE) 12:52:16 ?
RS-15 02 Oct 12:48:32 12:58:35 41° 251° (WSW) 13:09:02 29.354 - 29.394 USB, Beacon 29.352 USB
AO-27 02 Oct 12:59:56 13:03:45 21° 61° (ENE) 13:07:35 436.795 MHz FM
ZACube-1 02 Oct 13:04:26 13:05:33 11° 302° (WNW) 13:06:40 437.345 MHz
Saudisat 1A 02 Oct 13:10:04 13:13:26 22° 113° (ESE) 13:16:49 436.775 MHz
Gurwin Techsat 1B 02 Oct 13:32:46 13:36:39 21° 61° (ENE) 13:40:33 435.225 FM
JAS-1B 02 Oct 13:35:12 13:42:30 63° 71° (ENE) 13:48:42 435.800 - 435.900 CW/SSB
Oscar 19 02 Oct 13:43:40 13:48:51 76° 257° (WSW) 13:54:04 437.125 CW, 437.150 USB
AO-7 02 Oct 13:54:09 13:58:57 17° 44° (NE) 14:03:45 29.400 - 29.500 MHz
ITAMSAT 1 02 Oct 13:58:48 14:03:55 66° 72° (ENE) 14:09:05 435.822 SSB
Uribyol 2 02 Oct 13:59:15 14:04:24 71° 73° (ENE) 14:09:36 436.500 FM
TMSAT-1 02 Oct 13:59:53 14:04:14 27° 64° (ENE) 14:08:35 436.925 FM
MaSat-1 02 Oct 14:03:27 14:06:13 22° 51° (NE) 14:08:41 437.345 MHz
AO-Echo 02 Oct 14:23:01 14:27:39 63° 259° (WSW) 14:32:23 ?
Oscar 16 02 Oct 14:25:50 14:30:26 32° 264° (W) 14:35:03 437.025 USB, Beacon 2401.1428
AO-27 02 Oct 14:37:47 14:42:51 56° 259° (W) 14:47:59 436.795 MHz FM
Saudisat 1A 02 Oct 14:48:29 14:52:43 46° 311° (NW) 14:57:00 436.775 MHz
Gurwin Techsat 1B 02 Oct 15:10:59 15:16:12 58° 259° (W) 15:21:27 435.225 FM
KITSAT 1 02 Oct 15:26:27 15:31:18 17° 101° (E) 15:36:08 435.175 FM
JAS-1B 02 Oct 15:27:44 15:33:26 24° 266° (W) 15:38:32 435.800 - 435.900 CW/SSB
TMSAT-1 02 Oct 15:38:53 15:43:55 44° 262° (W) 15:48:59 436.925 FM
MaSat-1 02 Oct 15:40:00 15:42:30 20° 254° (WSW) 15:44:45 437.345 MHz
ITAMSAT 1 02 Oct 15:40:41 15:43:53 16° 270° (W) 15:47:07 435.822 SSB
Uribyol 2 02 Oct 15:41:25 15:44:24 15° 270° (W) 15:47:25 436.500 FM
AO-7 02 Oct 15:42:03 15:50:12 65° 66° (ENE) 15:58:22 29.400 - 29.500 MHz
Uosat F 02 Oct 15:45:41 15:50:20 41° 68° (ENE) 15:55:01 435.120 FM
Oscar 10/S400 02 Oct 16:01:46 16:18:38 39° 153° (SSE) 16:48:42 145.825 - 145.975 CW/USB, Beacon 145.810 USB
JAS-2 02 Oct 16:15:43 16:18:51 16° 56° (ENE) 16:22:06 435.800 - 435.900 CW/SSB, 435.910 FM
Sapphire 02 Oct 16:16:56 16:19:22 13° 31° (NNE) 16:21:48 437.095 MHz 1200 baud AX-25 AFSK
Saudisat 1A 02 Oct 16:32:30 16:33:25 11° 332° (NNW) 16:34:20 436.775 MHz
PCSat 02 Oct 16:41:38 16:45:23 18° 38° (NE) 16:49:07 145.825 MHz
Hamsat 02 Oct 17:09:39 17:13:24 30° 69° (ENE) 17:17:08 145.90 MHz
KITSAT 1 02 Oct 17:17:22 17:25:27 82° 120° (ESE) 17:33:34 435.175 FM
Uosat F 02 Oct 17:25:09 17:29:15 25° 266° (W) 17:33:24 435.120 FM
OPAL 02 Oct 17:36:14 17:41:08 45° 101° (E) 17:45:55 ?
AO-7 02 Oct 17:36:28 17:43:30 30° 265° (W) 17:50:34 29.400 - 29.500 MHz
JAS-2 02 Oct 17:58:02 18:03:13 75° 257° (WSW) 18:08:45 435.800 - 435.900 CW/SSB, 435.910 FM
Sapphire 02 Oct 17:58:46 18:04:06 53° 54° (NE) 18:09:23 437.095 MHz 1200 baud AX-25 AFSK
SO-67 02 Oct 18:14:04 18:16:20 17° 67° (ENE) 18:18:36 435.3500 MHz FM
PCSat 02 Oct 18:24:09 18:29:37 87° 59° (ENE) 18:35:02 145.825 MHz
SO-50 02 Oct 18:26:33 18:30:15 26° 113° (ESE) 18:34:01 436.795 FM
STRAND 1 02 Oct 18:41:16 18:44:49 19° 91° (E) 18:48:21 ?
Hamsat 02 Oct 18:45:40 18:49:20 27° 265° (W) 18:53:00 145.90 MHz
KITSAT 1 02 Oct 19:14:47 19:21:46 31° 323° (NW) 19:28:47 435.175 FM
OPAL 02 Oct 19:15:38 19:19:45 25° 299° (WNW) 19:23:49 ?
Sapphire 02 Oct 19:42:50 19:47:10 25° 252° (WSW) 19:51:29 437.095 MHz 1200 baud AX-25 AFSK
SO-67 02 Oct 19:46:02 19:49:07 30° 263° (W) 19:52:13 435.3500 MHz FM
AO-40 02 Oct 19:48:59 01:31:34 40° 182° (S) 07:15:34 Beacon 2401.320
HO-68 02 Oct 20:04:22 20:10:58 43° 63° (ENE) 20:17:37 435.675 MHz FM
SO-50 02 Oct 20:06:18 20:10:35 42° 312° (NW) 20:15:00 436.795 FM
UKube-1 02 Oct 20:07:02 20:08:25 11° 59° (ENE) 20:09:49 145.840 MHz, 145.915 MHz
PCSat 02 Oct 20:09:35 20:12:15 14° 257° (WSW) 20:14:54 145.825 MHz
STRAND 1 02 Oct 20:19:19 20:24:23 59° 289° (WNW) 20:29:25 ?
UOSAT-12 02 Oct 20:24:17 20:28:27 34° 116° (ESE) 20:32:42 437.025 FM, 437.400 FM
ZACube-1 02 Oct 20:50:14 20:51:42 11° 59° (ENE) 20:53:10 437.345 MHz
Oscar 11 02 Oct 21:08:48 21:12:46 35° 69° (ENE) 21:16:44 145.825 FM, Beacon 2401.500 USB
KITSAT 1 02 Oct 21:15:49 21:20:17 15° 352° (N) 21:24:45 435.175 FM
Saudisat 1A 02 Oct 21:34:23 21:38:20 31° 45° (NE) 21:42:16 436.775 MHz
FUNcube-1 02 Oct 21:37:49 21:41:51 32° 68° (ENE) 21:45:56 145.950 - 145.970 MHz USB
UKube-1 02 Oct 21:39:38 21:43:58 83° 256° (WSW) 21:48:20 145.840 MHz, 145.915 MHz
SO-50 02 Oct 21:51:25 21:52:26 11° 335° (NNW) 21:53:27 436.795 FM
HO-68 02 Oct 21:52:02 21:58:40 41° 262° (W) 22:05:22 435.675 MHz FM
ISS 02 Oct 22:02:58 22:06:16 65° 145° (SE) 22:09:35 145.800 FM
UOSAT-12 02 Oct 22:04:19 22:08:35 35° 315° (NW) 22:12:56 437.025 FM, 437.400 FM
ZACube-1 02 Oct 22:22:46 22:27:21 89° 74° (ENE) 22:32:00 437.345 MHz
Oscar 11 02 Oct 22:45:33 22:49:01 23° 266° (W) 22:52:30 145.825 FM, Beacon 2401.500 USB
KITSAT 1 02 Oct 23:13:52 23:19:29 20° 23° (NNE) 23:25:05 435.175 FM
Saudisat 1A 02 Oct 23:13:54 23:17:56 35° 243° (WSW) 23:21:57 436.775 MHz
FUNcube-1 02 Oct 23:14:16 23:18:12 28° 265° (W) 23:22:13 145.950 - 145.970 MHz USB
ISS 02 Oct 23:40:11 23:43:10 30° 344° (NNW) 23:46:10 145.800 FM
RS-15 03 Oct 01:02:58 01:12:06 32° 105° (ESE) 01:21:06 29.354 - 29.394 USB, Beacon 29.352 USB
KITSAT 1 03 Oct 01:09:05 01:16:59 53° 49° (NE) 01:24:49 435.175 FM
SO-50 03 Oct 01:17:24 01:18:28 11° 26° (NNE) 01:19:32 436.795 FM
ISS 03 Oct 01:17:52 01:20:33 22° 4° (N) 01:23:14 145.800 FM
JAS-1B 03 Oct 01:20:51 01:22:09 11° 88° (E) 01:23:27 435.800 - 435.900 CW/SSB
Oscar 19 03 Oct 01:54:05 01:58:44 34° 96° (E) 02:03:21 437.125 CW, 437.150 USB
ITAMSAT 1 03 Oct 02:10:57 02:14:52 21° 92° (E) 02:18:46 435.822 SSB
Uribyol 2 03 Oct 02:11:12 02:15:16 22° 93° (E) 02:19:18 436.500 FM
AO-Echo 03 Oct 02:28:17 02:32:58 37° 97° (E) 02:37:44 ?
Oscar 16 03 Oct 02:35:13 02:40:24 82° 104° (ESE) 02:45:32 437.025 USB, Beacon 2401.1428
AO-27 03 Oct 02:49:12 02:54:15 47° 99° (E) 02:59:16 436.795 MHz FM
ISS 03 Oct 02:54:35 02:57:49 45° 24° (NNE) 03:01:01 145.800 FM
SO-50 03 Oct 02:55:48 03:00:20 40° 47° (NE) 03:04:55 436.795 FM
KITSAT 1 03 Oct 03:04:49 03:12:12 41° 250° (WSW) 03:19:33 435.175 FM
JAS-1B 03 Oct 03:07:55 03:13:38 85° 105° (ESE) 03:19:52 435.800 - 435.900 CW/SSB
RS-15 03 Oct 03:12:23 03:23:24 76° 307° (NW) 03:34:24 29.354 - 29.394 USB, Beacon 29.352 USB
UOSAT-12 03 Oct 03:13:37 03:15:21 12° 27° (NNE) 03:17:05 437.025 FM, 437.400 FM
OPAL 03 Oct 03:16:31 03:19:27 15° 56° (NE) 03:22:23 ?
Gurwin Techsat 1B 03 Oct 03:25:35 03:30:46 51° 100° (E) 03:35:55 435.225 FM
Oscar 19 03 Oct 03:33:29 03:38:02 32° 294° (WNW) 03:42:32 437.125 CW, 437.150 USB
AO-7 03 Oct 03:43:34 03:48:44 18° 89° (E) 03:53:52 29.400 - 29.500 MHz
ITAMSAT 1 03 Oct 03:49:35 03:54:40 53° 290° (WNW) 03:59:44 435.822 SSB
Uribyol 2 03 Oct 03:49:57 03:55:00 49° 290° (WNW) 04:00:01 436.500 FM
TMSAT-1 03 Oct 03:52:48 03:58:06 66° 102° (ESE) 04:03:22 436.925 FM
Uosat F 03 Oct 03:54:40 03:55:38 11° 87° (E) 03:56:35 435.120 FM
AO-Echo 03 Oct 04:07:17 04:11:37 30° 294° (WNW) 04:16:02 ?
Oscar 16 03 Oct 04:16:16 04:19:04 15° 302° (WNW) 04:21:52 437.025 USB, Beacon 2401.1428
AO-27 03 Oct 04:29:17 04:33:29 25° 297° (WNW) 04:37:40 436.795 MHz FM
ISS 03 Oct 04:31:28 04:34:24 29° 222° (SW) 04:37:20 145.800 FM
SO-50 03 Oct 04:36:35 04:40:48 31° 245° (WSW) 04:45:03 436.795 FM
UOSAT-12 03 Oct 04:52:06 04:56:41 47° 49° (NE) 05:01:12 437.025 FM, 437.400 FM
OPAL 03 Oct 04:52:25 04:57:38 85° 253° (WSW) 05:02:53 ?
JAS-1B 03 Oct 05:00:34 05:03:41 15° 304° (WNW) 05:06:53 435.800 - 435.900 CW/SSB
JAS-2 03 Oct 05:05:14 05:09:20 16° 88° (E) 05:13:38 435.800 - 435.900 CW/SSB, 435.910 FM
Gurwin Techsat 1B 03 Oct 05:06:14 05:10:24 24° 297° (WNW) 05:14:33 435.225 FM
MaSat-1 03 Oct 05:22:23 05:27:12 73° 115° (ESE) 05:31:43 437.345 MHz
RS-15 03 Oct 05:28:28 05:37:52 31° 337° (NNW) 05:47:23 29.354 - 29.394 USB, Beacon 29.352 USB
Uosat F 03 Oct 05:30:03 05:35:08 87° 104° (ESE) 05:40:11 435.120 FM
TMSAT-1 03 Oct 05:33:53 05:37:30 19° 300° (WNW) 05:41:06 436.925 FM
AO-7 03 Oct 05:34:19 05:42:41 84° 108° (ESE) 05:51:00 29.400 - 29.500 MHz
STRAND 1 03 Oct 05:58:26 06:02:54 32° 66° (ENE) 06:07:23 ?
Hamsat 03 Oct 06:29:08 06:33:12 47° 99° (E) 06:37:13 145.90 MHz
UOSAT-12 03 Oct 06:32:48 06:36:34 24° 247° (WSW) 06:40:17 437.025 FM, 437.400 FM
OPAL 03 Oct 06:35:48 06:37:14 11° 271° (W) 06:38:40 ?
JAS-2 03 Oct 06:48:16 06:55:03 85° 104° (ESE) 07:02:35 435.800 - 435.900 CW/SSB, 435.910 FM
MaSat-1 03 Oct 07:00:54 07:04:01 17° 312° (NW) 07:07:00 437.345 MHz
SO-67 03 Oct 07:08:35 07:10:43 15° 92° (E) 07:12:50 435.3500 MHz FM
Uosat F 03 Oct 07:10:44 07:13:12 14° 303° (WNW) 07:15:40 435.120 FM
AO-7 03 Oct 07:28:11 07:34:34 26° 309° (NW) 07:40:59 29.400 - 29.500 MHz
STRAND 1 03 Oct 07:37:24 07:42:01 34° 263° (W) 07:46:40 ?
RS-15 03 Oct 07:45:56 07:54:48 27° 12° (NNE) 08:03:50 29.354 - 29.394 USB, Beacon 29.352 USB
Hamsat 03 Oct 08:06:05 08:08:48 17° 296° (WNW) 08:11:31 145.90 MHz
JAS-2 03 Oct 08:34:42 08:39:28 21° 301° (WNW) 08:44:34 435.800 - 435.900 CW/SSB, 435.910 FM
SO-67 03 Oct 08:40:44 08:43:50 32° 289° (WNW) 08:46:56 435.3500 MHz FM
Sapphire 03 Oct 08:42:28 08:47:18 34° 111° (ESE) 08:52:09 437.095 MHz 1200 baud AX-25 AFSK
